Погода в Нижарове

Россия / Чувашская Республика     55˚33′59″N   47˚53′19″E
темп.,
°C
ветер,
м/с
пор.,
м/с
влажн.,
%
обл.,
%
осадки,
мм/ч
давл.,
гПа
погр.,
м
17 января, вс
вс1700:00−14˚зюз51094100 0.2 999338
03:00−15˚зюз51094100 0.3 1001318
06:00−16˚з61193100 0.1 1002371
09:00−17˚з5119498 0.1 1005312
12:00−16˚зсз589293 0.0 1008466
15:00−19˚зсз379595 0.0 1011146
18:00−23˚сз349890 0.0 101437
21:00−25˚зсз229978 0.0 101620
18 января, пн
пн1800:00−26˚з1110052 0.0 101820
03:00−27˚сз1110073 0.0 102019
06:00−27˚ююз1110034 0.0 102019
09:00−27˚ю119947 0.0 102119
12:00−23˚вюв119570 0.0 102149
15:00−24˚всв119680 0.0 102020
18:00−25˚юв119697 0.0 102020
21:00−24˚всв119699 0.0 102020
19 января, вт
вт1900:00−22˚всв2296100 0.0 101983
03:00−21˚св2396100 0.0 1018128
06:00−21˚ссв2396100 0.0 1017146
09:00−20˚ссв3495100 0.0 1017169
12:00−19˚ссв2397100 0.3 1016226
15:00−18˚с2496100 0.8 1015229
18:00−18˚ссз2498100 0.3 1015151
21:00−19˚сз2398100 0.5 101463
20 января, ср
ср2000:00−19˚сз3598100 0.3 1014189
03:00−19˚сз3597100 0.8 1014250
06:00−19˚зсз3597100 0.6 1014251
09:00−19˚сз4696100 1.0 1014254
12:00−18˚зсз4793100 0.1 1014293
15:00−17˚зсз4795100 0.1 1015310
18:00−16˚зсз5995100 0.1 1016292
21:00−17˚з499597 0.2 1017244
21 января, чт
чт2100:00−17˚з499585 0.1 1018236
03:00−17˚з4109679 0.1 1019223
06:00−16˚з599581 0.1 1019242
09:00−17˚з6109583 0.1 1020260
12:00−15˚з5109498 0.0 1020279
15:00−14˚зюз599499 0.0 1019267
18:00−14˚юз61292100 0.0 1018277
21:00−12˚юз81683100 0.0 1014444